Hourly Data Report for October 26, 2014

All times are specified in Local Standard Time (LST). Add 1 hour to adjust for Daylight Saving Time where and when it is observed.

BAKER LAKE A
NUNAVUT

64°17'56.000" N
96°04'40.000" W
18.60 m
2300503
71926
YBK

Download Data

Hourly Data (October 2014)
Hourly Data Report for October 26, 2014
Temp Definition
°C
Dew Point Temp Definition
°C
Rel Hum Definition
%
Wind Dir Definition
10's deg

Wind Spd Definition
km/h
Visibility Definition
km
Stn Press Definition
kPa
Hmdx Definition


Wind Chill Definition


Weather Definition


TIME
00:00 Legend Double Dagger -6.4 -7.6 91 34 9 24.1 100.84   -11 Snow
01:00 Legend Double Dagger -6.9 -8.1 91 35 12 24.1 100.83   -12 Snow
02:00 Legend Double Dagger -6.8 -8.0 91 36 11 24.1 100.84   -12 Snow
03:00 Legend Double Dagger -6.7 -8.2 89 34 14 24.1 100.86   -12 Snow
04:00 Legend Double Dagger -6.7 -8.2 89 34 12 24.1 100.86   -12 Snow
05:00 Legend Double Dagger -6.4 -7.8 90 32 12 24.1 100.88   -12 Snow
06:00 Legend Double Dagger -6.3 -7.8 89 34 11 24.1 100.89   -11 Snow
07:00 Legend Double Dagger -6.8 -8.2 90 33 10 24.1 100.89   -11 LegendNANA
08:00 Legend Double Dagger -7.2 -8.9 88 31 17 32.2 100.89   -14 LegendNANA
09:00 Legend Double Dagger -8.1 -9.6 89 31 22 32.2 100.90   -16 Mainly Clear
10:00 Legend Double Dagger -8.0 -9.8 87 32 20 32.2 100.93   -15 LegendNANA
11:00 Legend Double Dagger -5.7 -7.5 87 31 16 32.2 100.96   -12 LegendNANA
12:00 Legend Double Dagger -5.8 -7.8 86 33 18 32.2 100.98   -12 Mostly Cloudy
13:00 Legend Double Dagger -5.8 -8.1 84 33 23 32.2 101.01   -13 LegendNANA
14:00 Legend Double Dagger -7.3 -9.4 85 31 20 32.2 101.03   -14 LegendNANA
15:00 Legend Double Dagger -8.1 -10.0 86 31 25 32.2 101.06   -16 Blowing Snow
16:00 Legend Double Dagger -8.7 -10.5 87 33 21 32.2 101.11   -16 LegendNANA
17:00 Legend Double Dagger -9.7 -11.3 88 32 27 32.2 101.14   -19 LegendNANA
18:00 Legend Double Dagger -9.6 -11.1 89 32 28 24.1 101.18   -19 Mainly Clear
19:00 Legend Double Dagger -9.1 -10.7 88 33 29 24.1 101.20   -18 LegendNANA
20:00 Legend Double Dagger -8.8 -10.4 88 33 23 24.1 101.23   -17 LegendNANA
21:00 Legend Double Dagger -7.9 -9.4 89 34 18 24.1 101.24   -15 Mainly Clear
22:00 Legend Double Dagger -7.2 -9.2 86 33 25 24.1 101.27   -15 LegendNANA
23:00 Legend Double Dagger -7.9 -9.9 86 32 30 24.1 101.28   -17 Snow

Notes on Data Quality.

Legend

  • E = Estimated
  • M = Missing
  • NA = Not Available
  • ‡ = Partner data that is not subject to review by the National Climate Archives
Date modified: